Vorticity
9 10 9 7 6 7 8 8 7 8 9 8 6 4 3 3 3 3 4 4 5 5 5 5 5 6 7 6 5 5 5 4 5 4 5 5 5 7 8 7 5 3 3 2 3 3 3 7 6 -3 -8 -6 -3 -2 2 8 9 5 5 1 1 2 2 7 7 7 8 6 8 8 6 5 5 5 6 6 7 9 8 11 13 8 11 14 10 9 7 5
8 9 10 10 8 8 8 9 8 8 9 9 7 5 4 3 3 3 4 4 4 5 5 6 5 6 7 6 5 5 5 4 5 5 6 6 6 9 8 5 4 5 6 6 7 5 3 5 6 3 3 5 3 -6 -8 0 7 7 3 -0 2 3 6 11 8 10 9 7 8 8 8 8 8 8 6 4 5 9 9 8 10 9 8 6 7 9 7 6
7 7 7 9 10 9 8 8 9 9 9 10 9 7 5 4 4 4 4 4 4 5 5 5 6 6 6 6 5 5 5 5 6 7 8 8 8 9 8 5 5 7 7 7 9 4 2 6 8 10 8 3 6 9 7 4 4 4 2 2 3 2 7 10 6 8 7 6 10 9 9 9 9 10 7 4 3 7 10 7 4 8 11 8 9 12 8 5
8 8 7 7 8 10 10 8 9 9 10 11 11 8 6 5 4 4 5 5 4 5 5 6 6 6 6 6 5 6 6 6 7 8 9 9 7 6 6 5 7 7 5 7 7 3 8 9 3 4 1 -0 6 10 10 6 2 7 10 4 1 4 6 6 5 5 6 7 9 9 10 10 9 10 9 6 4 6 9 6 3 4 10 12 10 11 10 9
9 9 8 8 7 9 11 10 9 10 11 11 12 11 8 6 4 4 6 6 5 5 5 6 6 6 6 6 6 7 6 7 8 8 10 9 6 4 4 6 7 6 6 6 5 5 10 6 1 5 -2 -0 8 3 2 3 5 16 17 2 -2 4 4 6 6 3 8 9 5 5 10 13 10 8 9 11 10 10 9 7 6 1 4 10 9 10 12 13
9 8 9 9 8 8 10 11 10 10 11 11 13 13 10 7 6 5 6 7 6 5 5 5 7 6 6 6 6 7 6 8 9 8 9 7 5 4 4 6 5 5 6 4 5 7 8 4 5 10 3 5 10 2 3 3 5 15 10 0 3 5 2 6 5 4 10 9 3 0 5 13 13 9 11 15 12 10 9 8 7 2 3 7 7 11 12 11
10 9 9 9 9 8 9 11 11 10 11 11 13 15 13 9 7 5 6 8 6 5 6 6 6 6 7 6 6 7 6 8 9 7 8 6 5 5 4 5 4 5 5 4 7 7 6 3 4 11 10 14 12 6 11 8 6 12 6 2 8 7 3 3 1 2 7 8 6 4 4 10 13 12 12 12 10 9 9 8 4 4 6 4 9 15 9 6
10 10 10 10 10 8 8 10 10 10 10 11 12 14 14 11 8 7 6 8 7 6 6 6 7 7 7 7 7 7 5 7 10 7 7 7 5 4 3 4 4 4 4 6 6 4 6 3 4 12 11 12 12 10 15 10 5 7 4 5 9 11 9 2 -0 -1 0 4 7 10 9 9 11 10 8 7 8 8 9 11 7 4 6 4 13 16 5 5
10 10 11 11 10 8 7 8 9 10 10 11 12 13 14 12 9 8 7 8 7 6 6 7 7 7 8 7 7 6 5 7 9 7 7 6 5 3 3 4 4 4 4 4 2 3 6 2 1 8 7 6 12 14 13 12 8 3 6 10 7 10 8 0 2 -2 -4 3 7 13 10 4 6 7 7 7 7 8 8 13 13 7 8 7 13 14 6 6
10 11 12 12 10 8 7 7 7 9 10 11 12 12 13 13 11 9 8 8 8 6 6 7 7 8 8 7 7 5 5 7 8 7 6 5 4 4 5 4 3 3 4 4 4 4 6 5 2 6 5 1 9 12 8 15 13 3 9 10 0 3 1 -6 0 -2 -2 5 8 15 10 0 6 10 8 4 6 13 12 12 11 7 9 9 12 12 10 10
11 12 13 11 9 8 8 7 6 7 9 10 10 11 12 13 13 12 10 8 8 7 6 8 8 9 8 7 6 5 6 8 7 6 6 5 4 4 5 4 4 4 3 3 2 1 5 7 3 6 7 3 9 11 8 12 6 -1 5 6 3 6 0 -7 -2 -0 2 4 6 17 12 3 10 12 11 7 6 14 13 12 9 3 9 11 13 12 11 14
12 13 11 8 7 8 9 9 8 6 7 8 9 9 11 12 13 14 12 9 8 7 7 8 9 9 8 6 5 5 7 7 6 6 6 6 4 4 4 2 4 3 3 3 2 2 3 5 4 7 7 5 10 11 7 4 0 1 5 5 4 5 5 -0 -0 4 2 -2 5 16 7 5 13 9 20 19 2 8 12 11 8 2 7 9 9 11 11 15
11 11 8 6 7 8 9 11 10 7 6 6 7 8 9 11 14 14 11 9 8 8 8 9 10 9 7 6 5 6 8 6 6 6 4 4 4 4 4 3 4 4 3 4 4 4 3 4 7 7 6 5 8 8 5 3 5 7 5 4 1 4 9 5 5 6 -0 -2 6 9 -1 4 12 12 31 24 -7 5 15 5 5 5 8 8 6 9 12 14
9 9 7 6 8 8 9 11 11 8 6 7 8 8 8 11 15 14 11 9 8 8 9 9 10 9 6 6 6 6 8 7 5 4 3 4 4 4 4 3 4 4 5 5 4 4 3 2 4 7 6 1 1 5 6 1 -1 3 0 -3 -0 5 6 4 7 1 -3 3 3 1 -2 4 13 17 27 13 -9 8 18 5 5 6 9 12 8 8 13 16
9 8 7 7 9 9 9 11 11 8 6 7 9 9 9 13 17 14 10 9 7 8 9 10 9 7 6 6 6 7 7 6 4 4 4 4 4 4 3 3 4 4 5 7 6 6 6 4 6 9 6 2 3 7 5 -10 -15 1 4 -4 2 5 -2 1 4 0 4 7 0 -2 0 6 12 13 14 10 3 8 16 15 9 7 11 15 10 5 8 12
12 7 6 7 8 9 10 11 11 8 6 6 9 10 10 15 17 12 10 9 7 8 10 10 8 7 6 6 6 6 6 5 4 4 4 4 3 3 4 3 4 5 6 7 6 5 5 7 8 8 6 10 15 9 2 -2 -4 6 4 -1 7 4 -2 1 -2 1 9 3 2 -0 -3 7 10 7 9 12 9 8 19 18 4 5 12 14 12 7 4 5
15 10 6 7 8 8 10 12 11 8 5 5 9 12 10 14 15 11 11 9 7 9 10 10 8 7 6 5 6 5 4 4 4 4 4 3 3 3 4 4 5 6 6 6 6 4 5 7 8 9 7 10 13 1 -7 -0 2 4 2 -3 4 6 2 1 -3 2 3 -6 3 -0 -7 6 8 8 11 12 16 16 19 9 -6 3 10 10 10 6 7 6
15 14 9 6 7 7 8 12 12 8 4 3 10 14 10 11 11 11 11 8 7 10 10 9 7 7 6 4 5 5 5 4 3 3 3 3 3 3 3 4 5 6 6 7 7 5 5 8 7 8 8 9 9 -3 -9 -3 -7 0 12 -1 -3 9 5 -2 0 -1 -6 -5 4 1 1 5 4 12 11 14 26 14 6 5 -1 7 8 11 16 5 3 6
11 15 12 7 6 7 7 11 13 10 4 1 9 16 13 9 9 12 11 7 8 10 10 9 7 7 7 5 4 6 5 3 2 2 2 3 3 4 4 5 6 7 7 6 7 7 5 5 6 7 8 10 6 -5 -3 3 -6 -1 18 12 -1 5 6 3 9 4 -2 5 7 4 6 0 1 10 1 9 21 2 -2 9 7 9 4 11 30 20 6 7
8 12 13 10 7 7 6 9 14 13 6 1 5 12 14 11 10 11 10 7 9 10 8 7 7 6 6 6 6 6 5 3 2 2 3 3 4 5 6 8 8 7 7 7 7 7 6 4 5 7 7 8 4 -1 3 3 -1 -0 16 30 17 7 6 -2 4 7 -0 3 8 9 5 -4 1 3 -1 18 22 -0 0 8 5 8 1 4 26 27 16 12
9 9 12 11 8 8 7 7 12 14 10 3 1 6 9 12 13 11 8 7 10 12 10 7 7 4 3 5 5 6 4 3 3 3 4 4 5 7 6 7 6 5 6 6 5 6 7 6 5 9 9 8 5 5 7 4 8 8 13 29 23 19 16 -7 -5 5 -3 4 11 6 -0 -4 2 2 5 20 15 1 6 8 4 11 8 6 17 18 12 12
10 10 10 11 9 8 8 7 9 12 13 7 2 2 5 11 13 10 6 6 10 12 11 9 7 4 2 3 3 4 4 4 4 3 5 5 5 6 6 5 5 6 7 5 6 7 7 6 7 9 7 9 6 2 7 5 5 8 16 26 22 28 24 -3 -1 1 -5 11 11 -0 2 1 1 3 7 9 2 1 6 2 1 11 12 9 17 14 6 9
9 10 10 9 9 9 9 8 8 10 13 11 7 3 4 9 12 11 6 5 8 10 9 6 5 4 3 2 2 4 4 5 5 4 5 5 5 6 5 6 6 7 7 5 6 6 6 5 7 8 8 15 12 5 7 5 8 16 21 26 21 22 18 -2 -2 -5 -9 8 7 1 4 0 1 5 5 5 1 -1 -1 -4 -3 7 13 10 18 16 5 9
8 9 10 9 9 9 9 9 9 10 12 14 12 8 5 7 9 11 8 5 6 8 8 5 4 4 4 2 0 1 3 4 3 2 3 4 5 5 4 6 6 5 6 5 6 6 7 7 7 7 10 18 14 9 12 9 21 29 17 18 15 5 4 -6 -7 -2 -1 7 12 7 -3 -4 6 7 4 3 1 -1 -1 -2 -4 5 15 13 11 7 1 7
9 8 9 9 10 10 9 9 9 9 10 13 15 12 9 8 8 10 9 6 6 7 7 5 4 4 5 4 2 1 2 3 4 3 3 3 3 4 5 6 6 5 5 5 7 8 8 9 10 9 11 16 10 6 11 11 20 20 4 8 7 -7 -6 -5 3 19 12 1 5 6 3 10 6 -2 6 8 2 3 1 -3 -0 11 18 13 7 -3 -1 11
8 8 8 9 10 11 10 10 9 9 9 11 16 16 13 10 9 10 11 7 5 7 7 6 5 4 4 4 4 6 3 4 6 3 3 3 3 4 4 6 7 6 6 7 9 9 9 10 10 11 10 11 10 7 9 11 15 14 5 5 5 2 2 -4 -0 18 12 -4 2 9 9 11 -1 -5 13 13 3 2 -3 -1 7 12 13 12 8 -5 -1 18
7 7 8 8 9 10 11 11 10 9 8 8 11 17 18 14 10 12 16 11 6 8 7 7 8 6 7 5 3 5 4 4 6 5 6 5 6 8 7 8 8 8 9 9 12 13 14 16 15 16 12 8 11 10 8 13 16 11 2 -2 8 17 12 3 3 11 4 -7 4 15 8 5 4 6 14 4 -2 -0 -4 5 9 3 7 11 9 7 9 15
8 8 8 8 8 9 10 12 12 11 10 6 3 8 16 15 11 12 18 15 10 11 9 8 10 6 8 11 8 6 4 4 4 5 8 7 8 11 10 11 10 10 9 5 10 14 14 18 14 11 13 12 17 14 11 23 24 8 -4 -5 14 28 19 7 2 -3 -5 -3 7 11 -0 2 8 3 0 -6 -6 2 1 6 7 3 11 10 8 22 20 6
9 9 9 9 8 8 8 8 10 10 11 11 6 5 9 12 11 10 14 13 9 12 12 8 9 7 5 8 10 9 7 8 7 6 8 9 9 10 11 13 10 11 13 9 10 8 8 15 8 2 5 5 13 15 12 20 14 -6 -11 -8 2 20 23 17 6 -3 7 22 28 22 2 -4 8 9 4 -0 -2 6 7 4 7 13 19 12 8 22 21 7
9 8 9 10 9 10 8 6 7 6 8 12 12 9 7 7 9 9 12 10 3 9 15 10 10 12 10 7 7 9 8 8 8 8 8 7 7 9 11 13 12 11 10 12 15 7 6 9 2 4 9 6 12 16 11 14 11 2 8 13 4 2 13 25 26 18 15 13 13 28 23 1 9 16 4 1 6 9 8 4 9 18 17 10 7 10 14 11
9 8 8 9 8 10 10 9 10 9 8 8 10 13 11 7 7 6 8 7 2 8 12 8 8 8 10 10 9 11 11 8 7 8 9 11 12 13 13 13 15 12 9 13 17 14 11 9 3 4 10 16 21 18 12 15 21 23 26 28 18 6 4 8 11 8 6 2 -3 19 32 7 1 12 7 10 13 3 6 15 20 19 13 10 9 5 8 11
12 11 10 8 8 9 9 10 11 11 11 7 7 12 12 11 9 6 7 2 1 11 12 12 17 11 8 10 9 11 13 14 13 12 14 15 15 16 17 17 13 8 10 11 8 11 11 2 2 1 -0 13 20 11 13 19 20 20 14 10 7 4 2 1 8 8 1 5 3 5 17 4 -12 -1 13 17 5 -11 1 20 17 9 9 13 12 7 6 5
14 15 14 12 11 9 8 10 9 10 11 8 6 8 10 12 8 10 14 4 1 10 8 12 23 20 15 14 13 16 17 17 16 14 16 16 13 13 13 15 12 6 9 9 7 15 14 1 2 2 -2 11 14 -1 5 22 15 -1 -1 3 -2 -5 -4 -2 8 11 0 4 9 3 10 11 -4 -5 5 7 0 -5 3 11 5 3 9 9 7 8 9 5
12 14 15 15 15 13 10 10 9 10 11 8 5 7 11 8 3 7 11 4 2 4 -0 7 19 18 15 12 11 16 16 17 18 14 14 15 13 11 9 5 5 8 8 6 11 17 11 10 14 5 -2 8 10 -4 4 30 23 1 1 -1 -13 -5 8 0 -3 3 4 7 11 9 10 11 2 -3 1 4 5 7 11 18 15 8 6 2 -1 3 5 5
11 11 12 13 15 17 15 12 11 11 12 9 5 10 11 1 1 7 8 8 7 3 3 13 19 18 18 15 15 21 17 9 12 15 14 14 9 10 16 8 0 10 12 2 11 18 3 4 12 3 -4 2 1 -6 9 38 33 12 10 -2 -14 6 17 3 -1 6 7 -0 -3 1 4 2 3 7 12 11 10 13 18 23 19 8 8 12 9 5 5 11
10 10 11 11 11 15 17 16 14 10 10 10 10 15 8 -5 4 10 5 10 12 6 6 3 3 11 18 14 9 24 31 15 9 18 16 10 5 7 17 15 2 7 11 2 8 17 0 -5 9 10 5 6 1 -7 5 30 31 9 0 0 1 6 4 -0 5 11 15 12 7 5 -0 -1 9 16 14 5 4 13 14 10 8 4 11 21 16 5 6 11
9 9 10 10 9 11 15 18 17 12 10 12 14 16 4 -2 14 12 2 11 13 13 13 -1 -6 -0 4 6 -3 6 28 22 12 16 6 -0 5 6 8 12 9 8 12 13 14 17 4 -5 10 15 5 6 8 1 -4 8 28 17 -6 2 13 1 -4 5 3 -2 8 15 14 8 -2 -2 8 12 5 -6 -2 9 7 4 7 8 12 19 14 6 6 6
9 10 9 9 9 6 10 16 19 16 13 11 11 11 6 6 11 3 4 14 5 5 12 4 4 -1 -5 12 10 -1 8 4 -1 5 1 1 8 9 8 6 5 2 -0 4 11 20 13 -3 5 10 -1 -1 4 4 -2 -0 24 26 -5 -1 19 7 3 17 15 8 12 16 14 6 0 5 12 12 2 -7 -1 7 4 8 17 18 15 12 7 7 6 3
10 10 8 10 9 4 7 13 18 20 15 11 8 4 5 7 2 -1 11 13 -4 -1 7 2 11 7 -5 9 12 6 12 2 -5 4 7 7 3 3 10 7 1 0 1 6 15 25 17 -1 0 4 2 6 -0 -1 9 5 12 21 -1 -7 11 9 4 11 17 16 6 4 10 5 3 7 4 -1 -6 -7 4 8 3 7 12 7 5 6 5 8 9 8
9 10 9 11 8 5 7 8 14 20 15 13 9 1 3 7 2 6 17 3 -14 1 8 -3 7 11 -2 2 3 6 18 6 -5 2 4 3 -1 -4 3 5 3 4 5 12 22 28 21 4 -6 -10 4 20 3 -6 12 8 3 13 3 -7 4 11 5 0 9 16 6 3 11 7 3 6 3 -0 -0 2 8 8 5 10 6 -2 5 15 13 10 12 14
8 10 8 10 8 5 6 5 11 17 14 14 11 3 6 7 3 14 21 -1 -17 6 17 -2 4 10 -2 1 5 2 9 3 -6 1 3 4 7 4 6 10 11 6 -1 -1 10 20 21 12 -2 -14 -5 14 6 -2 7 4 1 7 2 -1 5 7 3 -4 -5 5 7 4 5 3 3 10 15 15 12 10 8 7 9 12 10 11 17 19 14 10 11 15
7 8 6 8 8 5 6 7 9 11 9 11 11 6 4 5 10 22 24 2 -11 11 21 0 2 10 -2 1 7 1 6 9 3 1 1 3 5 5 9 11 10 13 11 4 7 17 18 17 18 7 -7 -7 -2 6 5 -4 -5 -4 -4 3 6 2 7 6 -6 -5 4 4 1 3 4 4 5 1 1 3 1 1 7 11 15 18 14 8 8 8 5 7
9 9 7 8 9 9 10 10 11 11 7 5 6 8 9 13 19 21 17 6 -2 8 13 5 7 7 -2 4 7 -4 -1 10 11 4 -3 -2 -3 -4 6 11 7 11 12 4 4 14 16 14 21 29 19 -6 -16 -1 8 1 0 -1 -5 -1 1 -1 7 13 3 -7 -5 0 3 5 5 2 -2 -4 -1 0 -2 0 6 10 16 17 11 7 8 5 2 3
10 8 7 7 8 11 10 8 10 9 4 2 6 12 19 20 16 13 14 13 10 9 3 4 12 3 -3 10 10 -2 -2 4 7 2 -4 -2 -2 -3 5 12 14 14 6 1 4 7 11 11 11 23 34 17 -3 2 7 0 1 4 -3 -4 2 0 -3 2 4 -6 -16 -12 -5 -2 2 4 2 5 10 10 10 14 12 8 15 18 13 11 8 2 -1 2
8 7 8 7 7 7 4 2 4 2 -0 6 11 10 11 11 6 6 11 9 12 16 5 -0 9 5 1 11 11 5 4 -2 -2 -1 -6 -5 -1 2 -0 -2 7 16 9 7 10 5 4 8 6 9 18 19 16 19 12 -2 -1 2 -5 -8 -2 2 -1 -5 -5 -3 -3 -5 -7 -5 -1 1 3 8 12 8 8 17 13 -0 4 16 15 10 9 4 -2 0
10 9 9 7 5 6 3 3 5 4 4 10 12 7 4 8 6 3 7 8 8 13 11 8 10 6 5 12 12 12 10 2 2 5 -2 -9 -4 4 0 -6 1 11 11 14 18 15 11 8 7 8 7 9 15 20 16 8 9 11 4 -4 -6 -0 9 8 0 5 12 6 -0 2 4 6 4 1 3 4 1 10 17 2 -4 10 16 16 17 11 1 2
11 10 9 10 9 8 8 8 5 5 10 15 11 7 8 12 11 2 4 17 19 10 8 12 13 9 9 14 13 14 14 8 7 12 8 -0 -2 -0 -2 -1 2 2 5 11 10 8 8 5 3 5 5 7 12 16 17 17 19 20 17 12 6 2 8 11 4 3 7 1 -5 -2 2 6 1 -10 -1 9 -0 3 22 21 10 10 9 8 10 6 -3 -4
6 5 8 14 14 11 11 13 10 9 19 20 6 3 9 11 12 7 3 14 24 18 10 10 13 12 11 13 13 12 14 14 12 14 16 13 11 9 6 7 10 6 7 12 9 6 8 10 9 9 9 10 11 12 13 12 13 14 14 14 15 12 13 14 9 3 2 -1 -3 0 6 10 2 -9 -2 8 1 1 15 18 10 4 -4 -5 1 3 -2 -6
7 7 5 8 9 9 8 10 11 13 16 10 -2 1 10 8 9 15 12 8 11 13 10 8 10 12 10 12 14 11 12 15 14 12 13 13 12 13 13 11 11 10 8 9 9 8 8 10 11 11 10 8 8 8 8 8 9 9 9 10 11 12 14 15 15 14 11 8 9 13 16 15 7 -0 0 5 4 4 7 8 7 3 -3 -2 4 5 2 2
9 10 7 5 4 5 6 3 6 11 10 3 1 6 10 8 9 13 13 9 7 9 11 10 10 12 12 12 10 9 10 13 13 12 12 12 11 10 11 10 9 11 11 10 11 9 7 9 11 12 13 13 12 12 11 11 11 8 9 11 11 12 12 9 10 10 9 8 9 10 9 9 7 4 4 8 9 7 9 14 15 10 6 4 3 3 3 6
7 8 8 7 2 2 5 2 3 10 10 6 7 9 8 9 10 9 8 8 9 11 12 11 9 8 9 11 10 10 11 11 11 11 11 10 11 9 8 10 12 14 13 12 11 9 8 8 10 13 15 14 14 13 13 14 14 13 12 11 10 10 11 10 11 10 10 12 13 12 10 8 8 7 6 9 12 7 4 8 10 9 7 4 5 11 12 11
7 6 6 5 2 2 7 7 6 10 12 10 10 11 9 7 8 7 5 5 6 9 10 9 9 7 5 8 12 13 14 13 11 10 11 12 13 12 11 12 13 14 14 12 10 10 8 7 7 9 11 11 11 11 12 12 13 14 13 15 21 21 14 10 11 12 10 9 9 9 7 6 7 9 8 8 12 12 9 8 8 6 6 6 9 11 5 0
Height
5896 5897 5899 5900 5901 5902 5904 5905 5906 5908 5910 5911 5913 5915 5916 5918 5919 5920 5921 5922 5923 5924 5925 5926 5926 5927 5928 5928 5929 5929 5930 5930 5930 5931 5931 5931 5932 5932 5932 5932 5932 5932 5931 5931 5931 5931 5930 5930 5930 5931 5933 5933 5932 5931 5930 5930 5929 5929 5928 5928 5930 5930 5931 5931 5930 5929 5929 5929 5928 5927 5927 5926 5925 5924 5924 5923 5923 5923 5922 5922 5921 5920 5920 5920 5919 5920 5921 5921
5895 5896 5897 5899 5900 5901 5902 5904 5905 5906 5908 5910 5911 5913 5915 5916 5918 5919 5920 5922 5923 5924 5924 5925 5926 5927 5928 5928 5929 5929 5930 5930 5930 5931 5931 5931 5932 5932 5932 5932 5932 5932 5932 5932 5931 5931 5931 5930 5931 5931 5933 5933 5932 5931 5931 5930 5929 5929 5929 5930 5931 5931 5932 5933 5932 5930 5929 5929 5929 5928 5928 5927 5926 5925 5925 5924 5923 5923 5923 5922 5921 5921 5920 5920 5919 5919 5919 5920
5893 5895 5896 5897 5899 5900 5901 5902 5904 5905 5907 5908 5910 5912 5913 5915 5917 5918 5919 5921 5922 5923 5924 5925 5926 5927 5927 5928 5928 5929 5929 5930 5931 5931 5931 5932 5932 5932 5932 5932 5933 5932 5932 5932 5932 5932 5932 5931 5932 5933 5933 5933 5932 5931 5931 5930 5929 5930 5932 5932 5932 5932 5933 5933 5932 5931 5930 5930 5930 5929 5928 5928 5927 5926 5925 5924 5923 5923 5923 5921 5920 5920 5920 5919 5919 5918 5918 5918
5892 5893 5895 5896 5898 5899 5900 5901 5902 5904 5905 5907 5909 5910 5912 5914 5915 5917 5918 5920 5921 5922 5923 5924 5925 5926 5927 5927 5928 5929 5929 5930 5930 5931 5931 5932 5932 5932 5932 5933 5933 5933 5933 5933 5932 5933 5932 5932 5933 5934 5933 5933 5932 5931 5931 5930 5930 5932 5933 5933 5933 5933 5933 5933 5932 5932 5931 5931 5931 5930 5929 5928 5927 5927 5926 5925 5924 5923 5922 5921 5920 5919 5919 5918 5918 5917 5917 5917
5891 5892 5894 5895 5896 5898 5899 5900 5901 5902 5904 5905 5907 5909 5911 5912 5914 5916 5917 5919 5920 5921 5922 5924 5925 5926 5926 5927 5928 5929 5929 5930 5930 5931 5931 5932 5932 5932 5933 5933 5934 5933 5933 5933 5933 5933 5933 5932 5933 5934 5933 5933 5932 5932 5931 5931 5932 5933 5934 5933 5933 5933 5933 5933 5932 5932 5931 5931 5931 5931 5930 5929 5927 5927 5926 5925 5924 5922 5921 5920 5919 5919 5918 5918 5918 5917 5918 5917
5890 5891 5892 5894 5895 5897 5898 5899 5900 5901 5903 5904 5906 5908 5909 5911 5913 5915 5916 5918 5919 5920 5922 5923 5924 5925 5926 5927 5928 5928 5929 5930 5930 5931 5932 5932 5932 5932 5933 5934 5934 5934 5934 5934 5934 5934 5933 5933 5934 5934 5934 5933 5932 5931 5931 5932 5933 5934 5934 5933 5933 5932 5932 5932 5931 5932 5931 5930 5930 5930 5930 5930 5928 5927 5926 5925 5924 5922 5921 5920 5919 5918 5918 5918 5918 5918 5918 5917
5888 5890 5891 5892 5894 5895 5897 5898 5899 5900 5901 5903 5905 5906 5908 5910 5912 5913 5915 5917 5918 5920 5921 5922 5924 5924 5925 5926 5927 5928 5929 5930 5930 5931 5932 5932 5933 5933 5933 5934 5934 5935 5935 5935 5935 5934 5934 5934 5934 5934 5934 5933 5932 5931 5931 5932 5933 5934 5933 5933 5932 5932 5932 5931 5931 5931 5930 5929 5929 5929 5930 5930 5929 5927 5926 5925 5924 5923 5921 5920 5919 5918 5918 5918 5918 5918 5917 5916
5887 5889 5890 5891 5893 5894 5896 5897 5898 5899 5900 5902 5903 5905 5907 5908 5910 5912 5914 5916 5917 5919 5920 5922 5923 5924 5925 5926 5927 5928 5929 5929 5930 5931 5932 5933 5933 5933 5934 5934 5935 5935 5935 5935 5936 5935 5935 5935 5934 5935 5934 5933 5932 5932 5931 5931 5932 5934 5933 5933 5933 5932 5932 5931 5930 5930 5929 5929 5929 5929 5929 5930 5929 5927 5926 5925 5924 5923 5922 5920 5920 5919 5919 5919 5918 5917 5916 5916
5886 5887 5889 5890 5892 5893 5895 5896 5897 5898 5900 5901 5903 5904 5906 5907 5909 5911 5913 5915 5916 5918 5919 5921 5922 5923 5924 5925 5926 5927 5928 5929 5930 5931 5932 5933 5933 5933 5934 5934 5935 5935 5936 5936 5936 5936 5936 5935 5934 5935 5935 5934 5933 5932 5931 5930 5930 5932 5932 5933 5933 5933 5932 5931 5930 5930 5929 5930 5930 5929 5928 5929 5928 5927 5926 5925 5924 5923 5922 5921 5920 5920 5920 5919 5917 5916 5915 5916
5885 5886 5888 5889 5891 5892 5894 5895 5896 5898 5899 5900 5902 5903 5905 5906 5908 5910 5912 5914 5915 5917 5918 5920 5921 5923 5923 5924 5925 5927 5928 5929 5930 5931 5932 5932 5933 5934 5934 5934 5935 5935 5936 5936 5936 5936 5936 5935 5935 5936 5935 5934 5933 5933 5931 5930 5930 5930 5931 5932 5933 5933 5932 5932 5931 5930 5930 5930 5930 5929 5928 5928 5929 5928 5927 5925 5924 5923 5922 5921 5921 5921 5920 5919 5918 5916 5916 5917
5884 5886 5887 5888 5890 5891 5893 5894 5896 5897 5898 5900 5901 5902 5904 5905 5907 5909 5911 5913 5914 5916 5918 5919 5921 5922 5923 5924 5925 5926 5927 5929 5930 5931 5932 5932 5933 5934 5934 5935 5935 5935 5936 5936 5936 5936 5936 5936 5935 5936 5935 5934 5934 5933 5932 5931 5931 5930 5930 5931 5932 5932 5932 5932 5931 5931 5931 5931 5930 5929 5928 5928 5929 5929 5928 5926 5924 5923 5922 5922 5922 5922 5921 5920 5918 5917 5917 5917
5883 5885 5886 5888 5889 5891 5892 5894 5895 5897 5898 5899 5900 5902 5903 5905 5906 5908 5910 5912 5913 5915 5917 5919 5920 5921 5922 5923 5925 5926 5927 5928 5929 5931 5931 5932 5933 5934 5934 5935 5935 5935 5935 5936 5936 5936 5936 5936 5936 5936 5935 5935 5934 5934 5933 5932 5932 5930 5929 5929 5930 5931 5931 5932 5932 5931 5932 5932 5931 5929 5928 5928 5928 5928 5927 5926 5925 5923 5922 5922 5922 5922 5921 5920 5918 5917 5917 5918
5883 5884 5886 5887 5889 5890 5891 5893 5894 5896 5897 5899 5900 5901 5903 5904 5905 5907 5909 5911 5913 5915 5916 5918 5919 5920 5922 5923 5925 5926 5927 5928 5929 5930 5931 5932 5933 5933 5934 5935 5935 5935 5935 5936 5936 5936 5936 5936 5936 5936 5935 5935 5934 5934 5934 5933 5932 5930 5929 5930 5930 5930 5930 5931 5932 5932 5932 5933 5932 5930 5929 5928 5928 5927 5927 5926 5925 5924 5922 5921 5922 5922 5921 5919 5918 5917 5917 5917
5882 5884 5885 5887 5888 5889 5891 5892 5894 5895 5897 5898 5899 5901 5902 5903 5904 5906 5908 5910 5912 5914 5916 5917 5918 5919 5921 5923 5925 5926 5927 5928 5929 5930 5931 5932 5933 5933 5934 5934 5935 5935 5935 5936 5936 5936 5936 5936 5936 5936 5935 5934 5934 5934 5934 5933 5933 5931 5930 5930 5930 5929 5930 5930 5931 5932 5933 5933 5932 5930 5929 5928 5928 5928 5927 5926 5925 5924 5922 5921 5922 5922 5921 5920 5918 5917 5917 5916
5882 5883 5885 5886 5887 5889 5890 5892 5893 5895 5896 5897 5899 5900 5901 5902 5904 5905 5907 5909 5911 5913 5915 5916 5917 5918 5921 5923 5924 5926 5927 5928 5929 5930 5931 5932 5932 5933 5933 5934 5935 5935 5935 5935 5936 5936 5936 5936 5936 5935 5935 5934 5934 5934 5934 5934 5933 5932 5931 5930 5929 5929 5930 5930 5931 5932 5933 5933 5932 5931 5929 5928 5927 5927 5927 5926 5924 5923 5922 5922 5923 5923 5922 5920 5918 5918 5917 5915
5881 5882 5884 5885 5887 5888 5890 5891 5892 5894 5896 5897 5898 5899 5900 5902 5903 5905 5907 5909 5910 5912 5914 5915 5916 5918 5920 5922 5924 5925 5926 5928 5929 5930 5931 5931 5932 5933 5933 5933 5934 5934 5935 5935 5935 5936 5936 5936 5936 5935 5934 5934 5934 5934 5934 5933 5932 5931 5931 5931 5930 5930 5930 5930 5931 5932 5933 5932 5931 5930 5929 5928 5926 5925 5925 5924 5923 5922 5922 5922 5923 5923 5922 5920 5918 5917 5916 5915
5880 5882 5883 5885 5887 5888 5889 5891 5892 5894 5895 5896 5898 5899 5900 5901 5903 5904 5906 5908 5910 5912 5913 5915 5916 5918 5920 5922 5923 5925 5926 5927 5929 5930 5930 5931 5931 5932 5932 5933 5933 5934 5934 5934 5935 5935 5935 5935 5935 5935 5934 5934 5934 5934 5933 5932 5931 5930 5929 5930 5930 5930 5930 5930 5931 5932 5932 5932 5931 5930 5929 5928 5926 5925 5924 5923 5923 5922 5921 5922 5922 5923 5923 5921 5918 5916 5915 5915
5880 5881 5883 5885 5886 5888 5889 5890 5892 5893 5895 5896 5897 5898 5900 5901 5902 5904 5905 5907 5909 5911 5913 5914 5916 5918 5920 5921 5923 5924 5926 5927 5928 5929 5930 5930 5931 5931 5932 5932 5932 5933 5933 5933 5934 5934 5934 5934 5934 5934 5934 5933 5933 5933 5932 5931 5930 5929 5928 5929 5929 5930 5930 5931 5931 5932 5932 5931 5930 5930 5929 5928 5926 5925 5924 5924 5923 5922 5921 5921 5921 5922 5923 5922 5919 5916 5915 5914
5880 5881 5882 5884 5886 5887 5888 5890 5891 5893 5894 5896 5897 5898 5900 5901 5902 5904 5905 5907 5908 5910 5912 5914 5916 5918 5920 5921 5923 5924 5925 5926 5927 5928 5929 5929 5930 5930 5931 5931 5932 5932 5932 5932 5933 5933 5933 5933 5933 5933 5933 5933 5932 5931 5931 5930 5930 5929 5928 5929 5929 5929 5930 5930 5931 5931 5931 5930 5929 5929 5929 5927 5926 5925 5924 5924 5923 5922 5921 5920 5920 5920 5921 5921 5919 5917 5915 5913
5880 5881 5882 5883 5885 5886 5888 5889 5890 5892 5894 5895 5896 5897 5899 5900 5902 5904 5906 5907 5909 5910 5912 5914 5916 5918 5920 5921 5922 5923 5924 5925 5926 5927 5928 5929 5929 5930 5930 5930 5931 5931 5931 5931 5932 5932 5931 5931 5932 5932 5932 5932 5931 5931 5930 5930 5929 5928 5927 5928 5929 5929 5930 5930 5931 5931 5930 5929 5929 5929 5928 5927 5926 5925 5924 5923 5922 5921 5920 5920 5919 5918 5919 5919 5918 5917 5915 5913
5879 5880 5882 5883 5884 5886 5887 5888 5890 5891 5893 5894 5895 5896 5897 5899 5901 5904 5906 5909 5910 5911 5913 5914 5916 5918 5919 5920 5922 5923 5924 5925 5926 5926 5927 5928 5928 5929 5929 5929 5929 5930 5930 5930 5931 5930 5930 5930 5930 5930 5930 5930 5930 5930 5930 5929 5928 5927 5927 5927 5927 5928 5929 5930 5930 5930 5929 5929 5928 5928 5928 5927 5926 5925 5923 5922 5921 5921 5920 5919 5918 5917 5916 5917 5917 5917 5915 5913
5879 5880 5882 5883 5884 5885 5887 5888 5889 5890 5892 5893 5894 5896 5897 5899 5900 5902 5904 5907 5909 5911 5913 5915 5916 5917 5918 5919 5921 5922 5923 5924 5925 5925 5926 5927 5927 5928 5928 5928 5928 5929 5929 5929 5930 5929 5929 5929 5929 5929 5929 5929 5929 5928 5928 5927 5926 5926 5926 5927 5927 5927 5929 5930 5930 5929 5928 5928 5928 5928 5927 5926 5926 5925 5923 5922 5920 5920 5919 5918 5917 5916 5915 5915 5916 5916 5915 5913
5879 5880 5882 5883 5884 5885 5886 5888 5889 5890 5891 5893 5894 5896 5898 5899 5900 5901 5903 5905 5908 5910 5912 5914 5915 5917 5917 5918 5920 5921 5922 5923 5923 5924 5925 5926 5926 5926 5927 5927 5927 5928 5927 5928 5928 5928 5927 5927 5927 5928 5928 5927 5927 5927 5926 5926 5925 5925 5926 5926 5927 5928 5929 5930 5929 5928 5927 5927 5927 5928 5927 5926 5926 5925 5923 5922 5921 5920 5919 5918 5916 5915 5914 5914 5915 5915 5914 5913
5879 5880 5881 5882 5884 5885 5886 5887 5888 5890 5891 5893 5894 5896 5897 5899 5900 5902 5903 5904 5906 5908 5910 5912 5914 5916 5917 5918 5919 5920 5921 5922 5922 5923 5924 5924 5925 5925 5926 5926 5926 5926 5926 5926 5927 5927 5926 5926 5926 5926 5926 5926 5926 5926 5925 5925 5925 5925 5925 5926 5926 5927 5927 5927 5926 5925 5926 5926 5927 5927 5925 5925 5926 5925 5923 5922 5921 5920 5919 5917 5916 5914 5913 5913 5913 5913 5912 5912
5879 5880 5881 5882 5884 5885 5886 5887 5888 5889 5891 5892 5894 5895 5896 5898 5900 5901 5903 5904 5906 5908 5909 5911 5913 5914 5915 5916 5917 5919 5920 5921 5921 5921 5922 5923 5923 5924 5924 5924 5924 5924 5924 5924 5925 5925 5924 5924 5924 5924 5925 5924 5924 5924 5924 5924 5924 5924 5925 5926 5926 5925 5925 5925 5925 5924 5925 5926 5926 5925 5924 5924 5924 5923 5922 5921 5920 5919 5918 5917 5916 5915 5913 5912 5912 5912 5911 5910
5879 5880 5881 5883 5884 5885 5886 5887 5888 5889 5891 5892 5894 5895 5896 5897 5899 5901 5902 5904 5905 5907 5909 5911 5912 5913 5914 5915 5916 5918 5919 5919 5919 5920 5921 5921 5922 5922 5922 5922 5923 5923 5923 5923 5923 5924 5923 5923 5923 5923 5923 5923 5923 5923 5923 5923 5923 5923 5924 5925 5924 5924 5924 5925 5924 5924 5924 5925 5925 5924 5923 5923 5922 5922 5920 5920 5919 5918 5918 5917 5917 5915 5913 5912 5912 5912 5910 5909
5879 5880 5881 5882 5883 5884 5885 5886 5888 5889 5890 5891 5893 5895 5896 5897 5898 5900 5902 5904 5905 5906 5908 5910 5911 5912 5912 5914 5915 5916 5917 5918 5918 5919 5919 5919 5920 5920 5921 5921 5921 5921 5922 5922 5922 5922 5922 5922 5922 5922 5922 5921 5922 5922 5922 5922 5922 5923 5923 5923 5923 5923 5923 5924 5925 5924 5924 5924 5924 5924 5922 5921 5921 5920 5919 5919 5918 5918 5918 5918 5917 5915 5914 5912 5912 5912 5911 5910
5879 5880 5881 5882 5883 5884 5885 5887 5888 5889 5890 5891 5892 5894 5896 5897 5898 5899 5901 5903 5904 5905 5907 5909 5909 5910 5911 5912 5913 5914 5915 5916 5917 5917 5917 5918 5918 5919 5919 5919 5919 5920 5920 5920 5920 5921 5921 5921 5920 5920 5920 5921 5921 5921 5921 5922 5922 5922 5921 5921 5922 5922 5923 5924 5924 5924 5923 5923 5924 5923 5921 5920 5920 5919 5919 5918 5918 5918 5918 5917 5916 5915 5913 5913 5912 5912 5912 5910
5879 5880 5881 5882 5883 5884 5885 5886 5887 5889 5890 5892 5892 5894 5896 5897 5898 5899 5901 5902 5903 5904 5906 5907 5908 5908 5909 5910 5911 5912 5913 5914 5915 5915 5916 5916 5917 5917 5918 5918 5918 5918 5918 5918 5918 5919 5920 5920 5919 5919 5920 5920 5920 5920 5920 5921 5922 5921 5920 5921 5922 5922 5923 5923 5923 5923 5923 5923 5923 5922 5921 5920 5919 5919 5918 5918 5918 5918 5917 5916 5915 5914 5913 5913 5912 5911 5911 5909
5878 5879 5880 5881 5882 5883 5884 5886 5887 5888 5890 5892 5893 5894 5896 5897 5898 5899 5901 5902 5903 5903 5905 5906 5906 5907 5908 5909 5910 5910 5912 5913 5913 5913 5914 5915 5915 5916 5916 5916 5916 5917 5917 5917 5918 5918 5919 5919 5919 5919 5918 5918 5919 5919 5919 5920 5920 5920 5920 5920 5921 5922 5923 5923 5923 5923 5923 5922 5922 5921 5920 5919 5919 5918 5918 5917 5917 5917 5916 5915 5914 5913 5913 5912 5911 5910 5909 5908
5878 5879 5880 5881 5882 5883 5885 5886 5887 5888 5889 5891 5893 5895 5896 5896 5897 5898 5900 5901 5902 5903 5904 5904 5905 5906 5907 5908 5908 5909 5910 5911 5912 5912 5912 5913 5914 5914 5915 5915 5915 5915 5916 5916 5917 5917 5917 5918 5918 5918 5918 5918 5918 5918 5918 5920 5920 5920 5920 5920 5920 5922 5922 5922 5922 5922 5921 5921 5921 5920 5919 5919 5918 5917 5917 5917 5916 5915 5915 5914 5913 5913 5912 5911 5909 5908 5907 5906
5878 5879 5880 5881 5882 5883 5884 5886 5887 5888 5889 5891 5893 5894 5895 5896 5896 5897 5898 5899 5901 5902 5903 5903 5904 5905 5906 5907 5907 5908 5909 5910 5910 5911 5911 5912 5913 5913 5913 5914 5913 5914 5914 5915 5915 5915 5916 5916 5917 5917 5918 5918 5918 5918 5918 5919 5919 5919 5919 5919 5920 5921 5921 5921 5921 5920 5920 5920 5920 5919 5918 5918 5917 5916 5916 5915 5914 5914 5914 5913 5913 5912 5910 5909 5908 5907 5906 5905
5877 5878 5880 5881 5882 5883 5884 5885 5887 5888 5889 5891 5892 5893 5895 5895 5896 5897 5898 5899 5900 5902 5903 5903 5903 5904 5905 5906 5906 5907 5908 5908 5909 5910 5910 5911 5911 5912 5912 5912 5912 5912 5913 5913 5914 5915 5915 5915 5915 5916 5917 5918 5918 5917 5918 5918 5918 5918 5918 5919 5919 5919 5919 5919 5919 5919 5919 5919 5918 5917 5917 5916 5915 5914 5914 5913 5913 5913 5912 5912 5912 5911 5909 5907 5907 5907 5905 5904
5877 5878 5879 5880 5882 5883 5884 5885 5887 5888 5889 5890 5891 5893 5894 5895 5895 5897 5898 5898 5899 5901 5902 5903 5903 5903 5904 5905 5905 5906 5907 5907 5908 5909 5909 5909 5910 5910 5911 5911 5911 5911 5911 5911 5912 5913 5914 5914 5913 5914 5915 5916 5917 5917 5917 5917 5917 5918 5918 5918 5918 5918 5918 5918 5918 5918 5918 5918 5917 5917 5916 5915 5913 5912 5913 5912 5912 5911 5910 5911 5911 5910 5908 5907 5906 5906 5905 5904
5877 5878 5879 5880 5881 5883 5884 5885 5886 5888 5889 5890 5891 5893 5894 5895 5895 5896 5897 5898 5898 5900 5901 5902 5903 5903 5904 5904 5904 5905 5906 5906 5907 5908 5909 5909 5909 5910 5910 5910 5910 5909 5909 5910 5911 5911 5911 5912 5912 5913 5913 5913 5915 5916 5916 5916 5917 5917 5917 5917 5917 5917 5917 5918 5918 5918 5917 5917 5916 5916 5915 5914 5913 5912 5912 5911 5910 5910 5910 5909 5909 5909 5907 5906 5906 5905 5905 5904
5878 5878 5879 5880 5881 5882 5884 5885 5886 5888 5889 5890 5892 5893 5895 5896 5896 5897 5897 5898 5898 5899 5900 5901 5903 5903 5903 5903 5904 5904 5905 5905 5906 5907 5908 5908 5908 5908 5908 5908 5908 5908 5907 5908 5910 5910 5911 5911 5912 5912 5912 5911 5913 5915 5917 5917 5916 5916 5916 5916 5916 5916 5917 5917 5917 5917 5917 5916 5915 5915 5914 5913 5912 5911 5910 5910 5910 5910 5909 5909 5908 5907 5906 5905 5905 5905 5905 5904
5878 5879 5880 5881 5881 5883 5884 5885 5886 5887 5889 5890 5892 5893 5895 5896 5896 5897 5897 5898 5898 5899 5899 5900 5902 5903 5903 5903 5903 5904 5904 5905 5906 5907 5907 5908 5907 5908 5907 5906 5906 5907 5906 5907 5909 5909 5910 5911 5911 5911 5911 5910 5911 5914 5916 5916 5916 5916 5916 5916 5916 5916 5916 5917 5917 5916 5915 5915 5914 5914 5913 5912 5911 5910 5909 5910 5910 5910 5909 5908 5907 5906 5905 5903 5903 5903 5904 5903
5878 5879 5880 5881 5882 5883 5884 5885 5886 5887 5889 5890 5891 5892 5893 5894 5896 5897 5898 5898 5898 5898 5898 5900 5901 5902 5903 5903 5903 5904 5905 5905 5907 5907 5907 5907 5907 5907 5907 5905 5905 5906 5905 5906 5908 5908 5909 5911 5910 5910 5911 5910 5910 5911 5912 5913 5914 5914 5916 5916 5916 5916 5916 5916 5915 5914 5914 5913 5912 5912 5912 5912 5911 5910 5909 5909 5910 5910 5909 5907 5906 5905 5903 5902 5901 5901 5902 5902
5878 5879 5881 5882 5882 5883 5884 5885 5886 5887 5888 5890 5890 5891 5892 5894 5895 5897 5897 5897 5897 5897 5898 5900 5901 5901 5902 5902 5902 5904 5905 5906 5907 5907 5907 5907 5907 5907 5907 5906 5905 5905 5905 5906 5906 5907 5908 5910 5910 5909 5910 5910 5909 5909 5909 5910 5911 5911 5913 5914 5914 5915 5914 5914 5913 5912 5912 5912 5911 5910 5910 5911 5911 5910 5909 5909 5909 5908 5907 5906 5905 5904 5902 5901 5899 5899 5900 5901
5879 5880 5881 5882 5882 5883 5884 5885 5886 5887 5888 5889 5890 5891 5892 5894 5895 5896 5896 5896 5897 5897 5898 5899 5899 5900 5901 5901 5901 5903 5904 5905 5905 5905 5905 5905 5905 5906 5906 5906 5905 5904 5905 5905 5905 5906 5907 5908 5909 5909 5909 5908 5908 5908 5908 5909 5909 5910 5911 5911 5911 5912 5911 5911 5912 5910 5910 5910 5909 5908 5909 5909 5909 5909 5908 5908 5907 5906 5905 5904 5904 5904 5902 5899 5897 5897 5898 5899
5879 5880 5881 5882 5882 5883 5883 5885 5886 5887 5888 5889 5890 5891 5892 5893 5894 5894 5895 5895 5896 5897 5898 5898 5898 5898 5899 5900 5900 5901 5902 5902 5902 5902 5902 5903 5904 5904 5905 5906 5905 5904 5904 5904 5904 5905 5906 5907 5908 5908 5908 5908 5908 5908 5908 5908 5909 5909 5910 5910 5910 5909 5909 5909 5908 5907 5906 5907 5907 5906 5907 5907 5907 5906 5906 5906 5905 5904 5903 5903 5903 5903 5900 5897 5895 5895 5896 5897
5879 5880 5881 5881 5882 5882 5883 5885 5886 5887 5887 5888 5889 5890 5891 5891 5892 5892 5893 5893 5894 5896 5897 5896 5896 5897 5897 5898 5899 5900 5901 5901 5900 5900 5900 5901 5901 5902 5902 5903 5903 5903 5903 5903 5903 5904 5905 5906 5907 5907 5908 5908 5907 5907 5906 5907 5908 5908 5909 5909 5909 5908 5907 5906 5905 5904 5904 5905 5904 5904 5905 5905 5904 5904 5904 5904 5903 5902 5901 5901 5902 5901 5899 5896 5895 5894 5894 5895
5879 5880 5881 5881 5882 5883 5884 5885 5886 5887 5887 5887 5888 5889 5889 5890 5891 5891 5891 5891 5892 5893 5894 5893 5894 5896 5896 5897 5898 5898 5898 5898 5898 5898 5898 5898 5899 5898 5899 5900 5900 5901 5901 5901 5901 5902 5902 5903 5904 5905 5906 5907 5906 5906 5905 5906 5906 5906 5907 5907 5907 5906 5905 5904 5903 5902 5901 5901 5901 5901 5902 5901 5900 5901 5901 5901 5901 5900 5899 5899 5899 5899 5897 5896 5895 5893 5893 5893
5879 5879 5881 5882 5882 5883 5884 5885 5885 5886 5886 5887 5887 5888 5888 5889 5890 5890 5890 5890 5890 5891 5892 5892 5893 5894 5894 5895 5897 5897 5896 5896 5896 5896 5895 5896 5896 5896 5897 5898 5898 5899 5899 5899 5900 5900 5900 5900 5901 5902 5903 5905 5905 5905 5904 5904 5904 5904 5904 5904 5904 5903 5902 5902 5901 5901 5900 5899 5899 5899 5899 5899 5899 5899 5899 5900 5899 5898 5897 5896 5896 5897 5896 5895 5894 5893 5892 5891
5879 5879 5880 5882 5882 5882 5882 5883 5883 5884 5885 5886 5886 5886 5886 5887 5888 5888 5889 5889 5890 5890 5890 5890 5892 5892 5892 5893 5895 5895 5895 5895 5895 5895 5894 5893 5894 5896 5896 5896 5896 5898 5898 5897 5898 5898 5898 5898 5899 5900 5901 5902 5903 5903 5902 5901 5901 5902 5902 5901 5901 5900 5899 5899 5899 5900 5899 5898 5897 5897 5897 5897 5897 5897 5897 5897 5897 5896 5895 5894 5894 5894 5894 5894 5893 5892 5891 5890
5879 5879 5880 5881 5881 5881 5881 5881 5882 5882 5883 5885 5885 5885 5884 5885 5885 5885 5885 5886 5887 5887 5887 5888 5890 5890 5891 5893 5894 5894 5894 5894 5895 5895 5894 5893 5893 5895 5895 5894 5895 5897 5897 5896 5896 5896 5896 5896 5896 5897 5898 5898 5899 5899 5898 5898 5898 5899 5898 5898 5899 5898 5897 5897 5896 5896 5897 5896 5895 5895 5895 5896 5896 5895 5895 5894 5894 5893 5892 5892 5892 5892 5892 5892 5892 5891 5890 5888
5879 5880 5880 5880 5880 5881 5881 5880 5881 5882 5883 5884 5884 5882 5882 5883 5883 5883 5882 5883 5885 5885 5885 5886 5888 5888 5890 5892 5893 5893 5893 5893 5894 5895 5894 5893 5893 5893 5893 5892 5893 5894 5894 5893 5893 5893 5894 5894 5894 5894 5894 5895 5895 5895 5895 5895 5895 5895 5895 5895 5895 5895 5895 5895 5894 5892 5892 5893 5892 5892 5893 5894 5894 5893 5893 5892 5891 5890 5890 5890 5890 5890 5890 5890 5890 5890 5889 5887
5878 5878 5879 5880 5880 5881 5881 5880 5880 5881 5883 5883 5881 5880 5880 5881 5882 5882 5882 5883 5884 5884 5885 5886 5886 5887 5889 5891 5892 5892 5892 5892 5893 5894 5893 5893 5893 5892 5891 5890 5889 5890 5889 5889 5889 5890 5891 5891 5891 5891 5891 5891 5892 5892 5892 5891 5891 5890 5890 5890 5890 5891 5892 5891 5890 5889 5888 5889 5889 5889 5890 5891 5891 5890 5890 5888 5888 5888 5888 5888 5888 5888 5889 5889 5889 5889 5889 5887
5877 5878 5878 5879 5879 5880 5879 5879 5879 5881 5882 5881 5880 5879 5880 5881 5881 5882 5882 5882 5883 5884 5884 5884 5885 5885 5887 5888 5889 5890 5890 5889 5890 5890 5890 5890 5890 5890 5889 5888 5887 5887 5887 5886 5886 5887 5887 5887 5888 5888 5888 5888 5887 5887 5887 5887 5886 5886 5886 5886 5886 5887 5887 5886 5886 5885 5885 5886 5886 5886 5887 5887 5887 5886 5886 5885 5885 5885 5885 5885 5885 5886 5887 5888 5888 5888 5888 5887
5877 5877 5877 5877 5877 5877 5877 5877 5878 5879 5880 5879 5879 5879 5880 5880 5880 5880 5881 5881 5882 5883 5883 5883 5883 5883 5884 5885 5886 5887 5887 5886 5886 5886 5886 5886 5886 5886 5886 5886 5885 5885 5885 5884 5883 5883 5883 5883 5884 5884 5884 5884 5884 5883 5883 5882 5882 5882 5881 5881 5882 5882 5882 5882 5882 5882 5882 5882 5882 5882 5882 5882 5882 5882 5882 5882 5883 5882 5882 5881 5882 5883 5884 5885 5886 5886 5886 5886
5876 5876 5876 5876 5875 5875 5876 5876 5877 5879 5879 5879 5878 5879 5880 5880 5880 5879 5880 5880 5881 5881 5881 5881 5881 5881 5882 5882 5883 5884 5884 5883 5883 5883 5883 5883 5883 5883 5883 5883 5883 5883 5883 5882 5881 5880 5879 5879 5880 5880 5881 5881 5880 5879 5879 5879 5878 5877 5876 5877 5878 5879 5878 5878 5878 5878 5879 5878 5878 5878 5877 5877 5877 5878 5878 5878 5879 5879 5878 5878 5878 5878 5879 5880 5882 5883 5883 5883
5874 5875 5875 5874 5874 5875 5876 5877 5877 5878 5879 5879 5879 5878 5879 5880 5880 5879 5878 5878 5879 5879 5879 5880 5880 5879 5880 5880 5880 5881 5881 5881 5881 5881 5880 5881 5881 5881 5881 5881 5880 5880 5880 5880 5878 5878 5877 5876 5876 5877 5877 5878 5877 5876 5876 5875 5874 5873 5873 5874 5874 5874 5874 5874 5874 5875 5875 5875 5874 5874 5874 5873 5874 5874 5874 5874 5874 5875 5875 5874 5875 5875 5875 5876 5877 5878 5879 5880